Weather History for KFOK - February, 2014

Change the Weather History Date:

Sunday, February 16, 2014

  Actual Average Record
Temperature  
Mean Temperature 26 °F -  
Max Temperature 30 °F 38 °F 55 °F (2002)
Min Temperature 21 °F 21 °F 3 °F (2015)
Degree Days  
Heating Degree Days 40    
Moisture  
Dew Point 14 °F    
Average Humidity 62    
Maximum Humidity 77    
Minimum Humidity 45    
Precipitation  
Precipitation 0.00 in - - ()
Sea Level Pressure  
Sea Level Pressure 29.92 in    
Wind  
Wind Speed 15 mph (WNW)    
Max Wind Speed 22 mph    
Max Gust Speed 43 mph    
Visibility 8 miles    
Events Snow    
Averages and records for this station are not official NWS values.
T = Trace of Precipitation, MM = Missing Value Source: NWS Daily Summary

Daily Weather History Graph

Daily Weather History Graph

Search for Another Location

Airport or City:

Trip Planner

Search our weather history database for the weather conditions in past years. The results will help you decide how hot, cold, wet, or windy it might be!

Date:

Astronomy

Feb. 16, 2014 Rise Set
Actual Time 6:43 AM EST 5:26 PM EST
Civil Twilight 6:15 AM EST 5:54 PM EST
Nautical Twilight 5:43 AM EST 6:26 PM EST
Astronomical Twilight 5:11 AM EST 6:58 PM EST
Moon 7:21 PM EST (2/16) 7:10 AM EST (2/16)
Length of Visible Light 11h 39m
Length of Day
10h 43m
Full, 97% of the Moon is Illuminated
Feb 16
Full
Feb 22
Last Quarter
Mar 1
New
Mar 8
First Quarter
Mar 16
Full

Hourly Weather History & Observations

Time (EST) Temp. Windchill Dew Point Humidity Pressure Visibility Wind Dir Wind Speed Gust Speed Precip Events Conditions
12:53 AM 28.0 °F 14.3 °F 17.1 °F 63% 29.65 in 8.0 mi NW 21.9 mph 35.7 mph 0.00 in   Clear
1:53 AM 27.0 °F 13.2 °F 16.0 °F 63% 29.69 in 5.0 mi NW 20.7 mph 42.6 mph 0.00 in   Clear
2:53 AM 26.1 °F 12.3 °F 15.1 °F 63% 29.73 in 10.0 mi NW 19.6 mph 31.1 mph 0.00 in   Clear
3:53 AM 26.1 °F 13.1 °F 14.0 °F 60% 29.75 in 10.0 mi NW 17.3 mph 25.3 mph 0.00 in   Clear
4:53 AM 26.1 °F 14.5 °F 12.9 °F 58% 29.80 in 10.0 mi WNW 13.8 mph 23.0 mph N/A   Clear
5:53 AM 25.0 °F 13.1 °F 12.0 °F 58% 29.82 in 10.0 mi WNW 13.8 mph - N/A   Clear
6:53 AM 21.9 °F 12.5 °F 10.9 °F 63% 29.86 in 10.0 mi West 8.1 mph - N/A   Clear
7:53 AM 24.1 °F 11.0 °F 10.9 °F 57% 29.89 in 10.0 mi WNW 16.1 mph 25.3 mph N/A   Clear
8:53 AM 25.0 °F 11.3 °F 10.9 °F 55% 29.89 in 10.0 mi WNW 18.4 mph 28.8 mph N/A   Clear
9:53 AM 26.1 °F 14.5 °F 10.9 °F 53% 29.88 in 10.0 mi NW 13.8 mph 24.2 mph N/A   Clear
10:53 AM 27.0 °F 15.6 °F 12.0 °F 53% 29.92 in 10.0 mi WNW 13.8 mph 21.9 mph N/A   Clear
11:53 AM 28.0 °F 16.1 °F 10.9 °F 49% 29.92 in 10.0 mi West 16.1 mph - N/A   Clear
12:53 PM 28.9 °F 17.3 °F 10.9 °F 47% 29.91 in 10.0 mi West 16.1 mph 23.0 mph N/A   Clear
1:53 PM 30.0 °F 21.1 °F 10.9 °F 45% 29.90 in 10.0 mi WNW 10.4 mph - N/A   Clear
2:53 PM 30.0 °F 20.5 °F 10.9 °F 45% 29.91 in 10.0 mi West 11.5 mph - N/A   Clear
3:53 PM 28.9 °F 19.2 °F 10.0 °F 45% 29.91 in 10.0 mi West 11.5 mph - N/A   Overcast
4:53 PM 28.9 °F 19.2 °F 10.0 °F 45% 29.93 in 10.0 mi West 11.5 mph - N/A   Overcast
5:53 PM 28.0 °F 20.8 °F 10.9 °F 49% 29.94 in 10.0 mi West 6.9 mph - N/A   Overcast
6:53 PM 28.0 °F 19.3 °F 12.0 °F 51% 29.96 in 10.0 mi WNW 9.2 mph - N/A   Overcast
7:42 PM 26.6 °F 16.8 °F 15.8 °F 64% 29.99 in 5.0 mi West 10.4 mph - 0.00 in Snow Light Snow
7:53 PM 25.0 °F 14.8 °F 16.0 °F 69% 29.99 in 2.0 mi WNW 10.4 mph - 0.00 in Snow Light Snow
8:07 PM 24.8 °F 15.3 °F 17.6 °F 74% 29.99 in 3.0 mi WNW 9.2 mph - 0.00 in Snow Light Snow
8:20 PM 24.8 °F 14.6 °F 17.6 °F 74% 30.00 in 2.0 mi WNW 10.4 mph - 0.00 in Snow Light Snow
8:27 PM 24.8 °F 14.0 °F 17.6 °F 74% 30.00 in 1.8 mi West 11.5 mph - 0.00 in Snow Light Snow
8:34 PM 24.8 °F 14.6 °F 17.6 °F 74% 30.00 in 2.0 mi WNW 10.4 mph - 0.00 in Snow Light Snow
8:53 PM 25.0 °F 14.2 °F 18.0 °F 75% 30.01 in 3.0 mi WNW 11.5 mph - 0.00 in Snow Light Snow
9:13 PM 24.8 °F 16.9 °F 17.6 °F 74% 30.01 in 4.0 mi WNW 6.9 mph - 0.00 in Snow Light Snow
9:53 PM 24.1 °F 14.4 °F 18.0 °F 77% 30.01 in 5.0 mi WNW 9.2 mph - 0.00 in   Haze
10:05 PM 24.8 °F 14.6 °F 17.6 °F 74% 30.01 in 6.0 mi WNW 10.4 mph - N/A   Haze
10:53 PM 24.1 °F 11.5 °F 18.0 °F 77% 30.03 in 9.0 mi NW 15.0 mph - 0.00 in   Overcast
11:14 PM 24.8 °F 12.9 °F 17.6 °F 74% 30.03 in 6.0 mi WNW 13.8 mph - 0.00 in Snow Light Snow
11:53 PM 24.1 °F 12.0 °F 17.1 °F 75% 30.05 in 10.0 mi NW 13.8 mph - 0.00 in   Overcast